星链-31552 (STARLINK-31552 )

导读 | 星芒AI

STARLINK-31552 是 SpaceX Starlink 卫星互联网项目中的一颗低轨卫星,属于第二代 Starlink 卫星(v1.5 或 v2)。该卫星于 2023 年发射,旨在为全球用户提供高速、低延迟的宽带互联网服务。它运行在约 550 公里的轨道高度,配备先进通信设备,支持 Ku 和 Ka 频段,提高数据传输效率。Starlink 项目致力于构建全球覆盖的卫星网络,尤其服务于偏远和网络基础设施薄弱的地区。

基本信息
目录编号:
59356
目录名称:
STARLINK-31552
国际标识:
2024-060J
轨道中心:
EARTH
卫星名称:
星链-31552
卫星全名:
星链-31552 (STARLINK-31552 )
卫星状态:
在轨 (已飞行629 天)
发射日期:
2024-03-31 UTC
国别 :
美国 (US)
星等 :
--
轨道信息
数据来源 国际轨道数据 AOE轨道数据
星历时间 2025-12-20T00:30:31+0800
8小时前
查看轨道信息
2025-12-17T06:00:00+0800
3天前
查看轨道信息
半长轴 6861.19km 6861.169km
偏心率 0.0001302 0.0001969
轨道倾角 43.000° 43.001°
近地点辐角 268.100° 272.724°
升交点赤经 352.024° 7.679°
平近点角 91.970° 309.868°
近地点 482.159km 481.683km
远地点 483.947km 484.385km
周期 94.267分钟 94.266分钟
每日圈数 15.275787 15.275858
详细信息
固有亮度:
5
最大亮度:
0.3
卫星平台:
Starlink v2.0 mini
覆盖范围:
全球
运营商:
太空探索技术公司
运营商所在国:
美国
制造商(研发单位):
太空探索技术公司
制造商所在国:
美国
使用方式:
暂无
卫星简介
星链(Starlink)计划是由太空探索技术公司(SpaceX)提出的一个巨型低轨卫星互联网星座项目,计划在2019年至2024年间在太空搭建由约1.2万颗卫星组成的“星链”网络,其中1584颗将部署在地球上空550千米处的近地轨道,并从2020年开始工作。该卫星仍在工作。
2D轨道图
3D轨道图
轨道高度分析图
轨道倾角分析图
轨道综合分析图
查看轨道综合分析图